Back to catalog

STARLINK-38252

AliveCommunicationsSSO
NORAD 100254·PAYLOAD·🇺🇸 United States

Launched Aug 8, 2026 from Vandenberg Space Force Base

Loading…

Next Passes (next 24 hours)

TLE

FreshSource: Space-Track

Epoch: Sep 14, 2026, 20:55 UTC

1 A0254U 26181J   26257.87191307  .00292752  00000-0  18906-2 0  9990
2 A0254  97.2833 301.1779 0002211  82.3390 277.8126 15.75268601  7072

Track STARLINK-38252 in real time with AllMySat

Download on the App Store